Location: Bennemühlen
(52.5740°N, 9.7135°E)
Time: 14:30:36
(UTC+00:00)

Altair - Visible Passes

Search period start: 10 February 2026 00:00
Search period end: 20 February 2026 00:00
Orbit: 1502 x 1682 km, 47.2° (Epoch: 9 February)

Date Brightness Start Highest point End Pass type
(mag) Time Alt. Az. Time Alt. Az. Time Alt. Az.
10 Feb 9.6 04:23:05 10° SSE 04:28:42 18° SE 04:34:25 10° E visible
11 Feb 9.6 03:58:34 10° SSE 04:03:40 16° SE 04:08:50 10° E visible
11 Feb 8.7 05:57:44 10° SW 06:06:15 42° SSE 06:15:05 10° E visible
12 Feb 9.5 03:34:10 10° SSE 03:38:38 15° SE 03:43:09 10° E visible
12 Feb 8.7 05:32:44 10° SSW 05:41:07 40° SSE 05:49:47 10° E visible
13 Feb 9.6 03:09:55 10° SSE 03:13:37 13° SE 03:17:21 10° E visible
13 Feb 8.7 05:07:44 10° SSW 05:16:00 38° SE 05:24:30 10° E visible
14 Feb 9.6 02:45:59 10° SE 02:48:36 11° ESE 02:51:14 10° ESE visible
14 Feb 8.7 04:42:47 10° SSW 04:50:53 36° SE 04:59:13 10° E visible
15 Feb 8.7 04:17:51 10° SSW 04:25:46 34° SE 04:33:55 10° E visible
16 Feb 8.7 03:53:17 11° SSW 04:00:41 32° SE 04:08:37 10° E visible
16 Feb 8.1 05:55:03 10° WSW 06:04:03 58° SSE 06:13:25 10° E visible
17 Feb 8.7 03:29:51 16° S 03:35:35 30° SE 03:43:18 10° E visible
17 Feb 8.0 05:29:55 10° WSW 05:38:53 56° SSE 05:48:10 10° E visible
18 Feb 8.7 03:06:19 20° S 03:10:30 28° SE 03:17:59 10° E visible
18 Feb 8.0 05:04:49 10° SW 05:13:43 55° SSE 05:22:55 10° E visible
19 Feb 8.7 02:42:41 22° SSE 02:45:26 26° SE 02:52:38 10° E visible
19 Feb 8.0 04:40:43 14° SW 04:48:33 53° SSE 04:57:40 10° E visible
